Vorticity
6 5 23 7 7 14 11 11 12 14 9 2 3 14 11 6 5 9 12 16 16 13 18 9 16 13 20 18 25 17 4 19 5 10 11 12 14 11 5 5 6 2 6 4
10 20 10 9 14 11 15 12 15 3 6 6 6 7 6 2 9 9 13 16 36 20 17 10 14 20 11 15 24 23 24 8 9 7 15 15 10 2 18 7 -4 2 4 9
10 16 7 11 8 11 9 11 8 7 3 6 6 1 7 3 8 18 18 18 17 15 19 15 19 19 21 18 6 9 17 8 12 9 15 12 8 6 2 2 6 16 5 6
8 10 13 8 10 9 11 11 7 8 2 6 2 12 4 2 9 12 22 10 13 21 6 27 20 10 17 -3 33 9 10 8 16 20 14 11 9 10 7 7 9 2 5 6
16 11 9 12 12 5 10 6 6 3 3 5 8 7 10 4 12 14 7 6 20 21 18 13 42 12 12 25 -4 29 7 11 7 17 14 14 6 2 13 4 5 6 4 4
10 5 6 9 6 8 5 8 3 4 7 3 1 0 7 4 19 12 7 28 14 25 30 24 12 17 15 9 16 13 25 6 17 18 15 8 10 6 14 3 7 4 3 4
10 12 11 6 3 10 9 5 6 7 5 4 8 4 5 14 20 10 1 -10 20 24 6 19 23 19 20 23 19 8 9 13 20 18 11 6 7 1 9 7 7 1 4 10
8 8 4 10 9 4 7 10 8 7 8 3 2 8 8 17 14 7 18 25 -13 27 -3 -3 24 17 36 7 -5 29 5 12 15 5 4 6 7 8 5 2 8 2 6 12
5 3 11 9 9 7 5 6 6 2 3 8 9 3 15 15 11 8 -1 35 42 21 9 28 28 22 16 2 12 14 7 4 14 6 3 10 9 9 3 9 3 3 8 9
7 8 6 9 8 6 5 5 5 2 8 7 6 -1 14 16 15 3 31 20 8 11 53 12 24 14 12 13 13 11 4 11 14 -15 25 3 12 6 9 7 4 2 7 8
10 13 6 5 5 7 6 4 9 5 20 1 2 6 4 15 16 8 -4 17 18 -3 25 7 16 37 -5 2 8 6 6 14 4 31 -6 11 15 4 7 6 5 2 8 9
8 7 7 6 4 8 9 5 8 7 -15 -7 2 1 8 8 11 -2 14 10 3 48 4 3 13 3 23 21 5 3 18 -3 11 8 16 11 11 7 8 3 5 6 9 11
6 7 4 5 5 6 7 9 12 12 10 7 9 8 -1 6 7 -7 18 5 14 8 17 23 -4 9 11 11 15 8 10 11 15 26 12 9 8 4 6 6 4 3 6 13
5 5 6 7 7 8 9 12 13 12 11 13 5 11 -5 1 6 3 6 -14 18 20 7 23 12 7 14 16 10 9 -0 -12 11 65 12 13 16 5 6 6 3 4 3 14
12 9 9 11 16 17 15 13 12 10 13 12 16 9 9 -7 -36 24 8 10 -1 16 12 10 16 11 15 18 15 23 4 11 -6 58 13 36 32 7 7 6 3 4 2 8
9 11 13 14 22 25 19 18 28 27 20 13 18 15 -1 34 -7 -27 13 12 5 15 10 16 12 5 12 15 22 17 14 14 8 13 26 -34 35 5 5 5 4 4 -1 6
15 20 16 22 16 -1 13 37 37 32 46 26 13 17 -3 -12 17 20 -6 26 11 -4 10 12 10 21 6 13 15 18 13 7 6 1 -1 14 33 24 12 7 6 8 0 2
14 8 9 10 6 25 24 21 12 12 49 44 21 29 10 -7 -0 1 13 12 13 8 13 12 1 11 9 10 14 17 14 12 10 2 5 10 26 5 28 8 14 2 8 0
7 6 15 11 17 19 2 20 -3 -5 18 38 25 6 -13 25 36 20 3 31 13 5 12 8 11 11 12 7 12 8 15 19 12 10 8 14 -38 -8 31 5 4 7 13 -1
8 41 50 42 22 -1 19 17 12 23 12 3 30 32 22 -6 25 20 23 6 15 16 8 12 14 6 13 8 4 14 20 15 13 8 15 19 -28 18 13 14 -10 11 9 7
19 19 2 9 12 7 17 22 9 17 21 20 -8 -12 13 6 14 13 -2 6 3 5 9 8 13 6 4 9 7 8 7 22 12 22 9 9 8 -5 11 12 -37 9 -3 8
-2 -10 -2 7 13 30 10 39 15 24 17 11 16 -36 19 -6 12 5 3 7 5 6 6 8 9 14 4 4 8 6 11 8 9 32 7 18 4 5 3 11 4 11 -5 36
22 37 27 52 20 23 14 18 11 33 -1 1 29 -3 -12 1 6 -4 1 17 7 9 8 7 13 9 17 6 4 8 9 16 12 10 28 8 3 7 12 16 26 1 8 7
5 2 20 -6 -4 9 29 19 -4 14 20 -1 10 19 12 13 9 8 11 14 5 -6 10 5 5 8 9 12 12 9 8 12 14 6 16 2 15 30 28 5 5 13 26 33
10 13 7 8 10 13 6 14 30 24 6 6 5 2 11 10 7 7 8 9 11 8 12 4 6 7 6 9 10 12 15 15 3 13 13 13 12 14 19 20 26 17 21 26
7 14 15 3 7 6 7 7 8 6 7 7 11 9 14 16 10 11 21 21 19 5 19 14 16 9 8 8 7 14 16 14 11 14 14 15 20 18 19 17 16 11 15 22
Height
5673 5674 5674 5674 5672 5673 5673 5674 5676 5676 5671 5672 5671 5676 5675 5670 5666 5662 5659 5654 5649 5647 5651 5651 5652 5654 5657 5662 5666 5670 5675 5680 5687 5690 5694 5699 5705 5708 5711 5714 5716 5717 5719 5721
5662 5664 5663 5661 5663 5663 5663 5666 5668 5667 5662 5663 5660 5665 5665 5660 5656 5648 5645 5642 5639 5636 5636 5638 5639 5640 5644 5648 5654 5658 5662 5668 5676 5679 5686 5690 5695 5698 5701 5701 5706 5710 5711 5714
5653 5655 5652 5654 5653 5655 5656 5656 5659 5659 5656 5655 5652 5657 5658 5652 5640 5636 5632 5629 5627 5624 5625 5626 5626 5628 5632 5637 5643 5646 5652 5659 5664 5673 5675 5679 5685 5689 5693 5692 5700 5705 5705 5707
5643 5644 5644 5644 5645 5647 5647 5647 5648 5649 5648 5649 5642 5642 5652 5641 5632 5628 5623 5619 5614 5611 5610 5614 5617 5618 5622 5627 5634 5639 5645 5650 5657 5663 5666 5670 5678 5684 5688 5689 5695 5696 5700 5700
5636 5633 5635 5636 5639 5636 5641 5638 5639 5640 5640 5642 5635 5626 5637 5631 5624 5619 5614 5609 5604 5601 5601 5603 5606 5609 5614 5619 5626 5632 5638 5642 5649 5653 5658 5664 5670 5675 5679 5682 5686 5691 5693 5694
5623 5624 5627 5630 5629 5630 5631 5631 5631 5632 5631 5633 5630 5615 5625 5620 5615 5611 5608 5603 5598 5594 5592 5594 5598 5602 5607 5613 5618 5626 5631 5636 5642 5646 5652 5658 5663 5669 5671 5675 5680 5684 5686 5688
5616 5618 5620 5621 5623 5623 5623 5623 5623 5622 5622 5622 5618 5615 5615 5611 5604 5601 5600 5599 5593 5590 5588 5588 5591 5595 5600 5605 5611 5619 5626 5630 5635 5640 5645 5650 5656 5661 5666 5669 5673 5677 5680 5682
5609 5612 5612 5614 5615 5617 5616 5616 5614 5613 5611 5613 5611 5608 5608 5602 5599 5596 5594 5592 5589 5584 5583 5584 5586 5589 5594 5600 5606 5612 5619 5624 5630 5633 5637 5644 5649 5654 5660 5664 5668 5672 5674 5675
5601 5604 5606 5607 5605 5608 5607 5607 5607 5602 5603 5600 5604 5604 5601 5598 5594 5594 5591 5589 5585 5579 5580 5580 5581 5584 5592 5596 5599 5606 5613 5619 5623 5630 5634 5636 5641 5648 5654 5658 5662 5666 5667 5669
5594 5596 5599 5599 5598 5598 5596 5596 5596 5594 5594 5591 5595 5595 5592 5592 5590 5590 5586 5583 5580 5577 5576 5577 5578 5581 5587 5591 5595 5602 5606 5612 5618 5621 5622 5627 5635 5641 5646 5652 5656 5659 5661 5664
5587 5589 5590 5591 5590 5589 5589 5587 5587 5587 5586 5584 5584 5588 5587 5585 5586 5585 5582 5579 5577 5575 5574 5576 5577 5578 5582 5586 5592 5596 5600 5604 5608 5613 5618 5621 5626 5633 5639 5645 5649 5652 5655 5659
5579 5578 5578 5579 5578 5577 5578 5577 5577 5576 5577 5574 5575 5578 5580 5580 5580 5580 5579 5576 5574 5571 5571 5573 5574 5577 5578 5582 5585 5589 5594 5595 5600 5606 5611 5615 5620 5626 5631 5638 5642 5646 5649 5652
5568 5568 5568 5567 5565 5566 5567 5567 5564 5562 5561 5565 5566 5569 5573 5575 5575 5575 5574 5573 5571 5570 5569 5569 5570 5572 5575 5578 5580 5584 5588 5591 5595 5600 5606 5610 5614 5620 5626 5632 5636 5641 5644 5646
5558 5558 5559 5557 5555 5554 5555 5552 5548 5547 5547 5552 5555 5560 5566 5568 5569 5570 5569 5570 5568 5567 5568 5566 5568 5569 5570 5573 5576 5579 5582 5586 5591 5589 5597 5602 5604 5613 5618 5625 5631 5635 5639 5639
5551 5550 5548 5546 5543 5542 5537 5537 5536 5532 5536 5538 5548 5550 5557 5561 5561 5564 5566 5566 5566 5564 5563 5563 5564 5566 5567 5568 5571 5573 5577 5580 5584 5586 5590 5586 5594 5603 5610 5616 5622 5627 5631 5633
5539 5537 5536 5534 5530 5525 5523 5526 5523 5521 5520 5525 5534 5543 5548 5552 5553 5557 5560 5561 5562 5562 5561 5560 5561 5562 5564 5564 5565 5568 5573 5576 5578 5582 5583 5586 5583 5596 5604 5610 5614 5620 5623 5627
5529 5526 5523 5525 5521 5517 5515 5512 5509 5508 5507 5513 5521 5534 5541 5548 5551 5551 5554 5555 5557 5558 5558 5558 5558 5559 5560 5561 5562 5564 5568 5572 5576 5581 5577 5584 5589 5590 5598 5604 5608 5612 5617 5620
5520 5517 5516 5517 5513 5511 5509 5506 5505 5502 5500 5506 5517 5528 5538 5542 5544 5546 5549 5552 5552 5555 5556 5556 5557 5557 5557 5558 5559 5560 5562 5565 5570 5575 5582 5583 5586 5588 5589 5597 5603 5606 5610 5612
5514 5511 5508 5507 5508 5509 5506 5503 5503 5504 5504 5509 5518 5527 5534 5538 5539 5541 5545 5548 5549 5551 5552 5552 5553 5554 5554 5555 5556 5556 5557 5560 5563 5568 5572 5577 5579 5582 5584 5592 5595 5599 5601 5604
5509 5505 5501 5501 5504 5505 5503 5502 5501 5504 5508 5512 5520 5526 5530 5533 5536 5538 5543 5546 5547 5548 5548 5549 5550 5551 5551 5552 5552 5551 5551 5554 5557 5560 5564 5568 5572 5576 5578 5584 5587 5591 5593 5596
5506 5505 5502 5502 5503 5504 5502 5501 5500 5504 5510 5511 5518 5523 5525 5530 5532 5536 5540 5543 5544 5545 5545 5545 5546 5546 5547 5546 5547 5548 5548 5548 5551 5554 5557 5561 5564 5567 5569 5573 5574 5578 5583 5586
5505 5505 5504 5504 5503 5503 5501 5502 5504 5505 5508 5511 5516 5520 5524 5529 5531 5534 5537 5539 5541 5542 5542 5543 5543 5543 5544 5543 5543 5545 5545 5545 5546 5547 5549 5550 5554 5558 5560 5563 5567 5570 5572 5572
5506 5504 5503 5504 5503 5502 5503 5501 5503 5506 5508 5513 5516 5520 5523 5527 5530 5532 5534 5535 5536 5537 5538 5539 5539 5539 5539 5539 5539 5539 5540 5541 5542 5542 5541 5542 5544 5546 5549 5552 5555 5558 5559 5561
5507 5505 5505 5505 5505 5504 5503 5503 5505 5507 5508 5513 5514 5518 5523 5526 5527 5529 5530 5530 5532 5533 5533 5534 5534 5534 5533 5533 5534 5534 5535 5535 5536 5535 5534 5535 5535 5535 5537 5540 5541 5543 5545 5545
5507 5507 5507 5506 5505 5505 5505 5506 5506 5508 5510 5512 5516 5520 5522 5524 5525 5526 5526 5526 5526 5526 5527 5527 5528 5528 5528 5528 5528 5528 5528 5529 5529 5529 5528 5528 5527 5527 5527 5528 5528 5529 5529 5532
5505 5506 5506 5506 5506 5505 5506 5507 5508 5511 5513 5515 5517 5519 5520 5521 5521 5521 5522 5521 5521 5521 5521 5520 5520 5521 5522 5522 5521 5521 5521 5521 5521 5522 5520 5520 5519 5519 5518 5519 5519 5519 5519 5520